Date String (YYYY-MM-DD hh:mm:ss) UTC,Instrument flags,Ambient pressure (hPa),Sample flow (lpm),Bypass flow (lpm),Sample temperature (°C),Ambient temperature (°C),ASC tube jacket temperature (°C),LED temperature (°C),Box temperature (°C),Sample RH (%),Span deviation,Mass concentration (μg/m³),Mass concentration (μg/m³),Mass concentration (μg/m³)
DateTimeUTC,F1_M11,P_M11,Q1_M11,Q2_M11,T1_M11,T2_M11,T3_M11,T4_M11,T5_M11,U1_M11,ZSPAN_M11,X2_M11,X0_M11,X1_M11
2023-03-05 03:00:00,,0816.1,4.98,0.00,22.7,21.0,00.0,31.4,24.4,14.6,-000.2,0008.25,0013.62,0007.67
2023-03-05 03:01:00,,0816.1,5.02,0.00,22.6,21.0,00.0,31.4,24.4,14.5,-000.2,0008.17,0013.48,0007.63
2023-03-05 03:02:00,,0816.1,4.99,0.00,22.6,21.0,00.0,31.4,24.4,14.5,-000.4,0008.15,0013.18,0007.59
2023-03-05 03:03:00,,0816.0,4.99,0.00,22.6,20.9,00.0,31.4,24.4,14.5,-000.3,0008.12,0013.07,0007.55
2023-03-05 03:04:00,,0816.0,5.01,0.00,22.6,20.9,00.0,31.4,24.4,14.4,-000.4,0008.08,0013.03,0007.51
2023-03-05 03:05:00,,0816.0,5.01,0.00,22.6,20.9,00.0,31.4,24.3,14.4,-000.2,0008.05,0012.16,0007.50
2023-03-05 03:06:00,,0815.9,5.00,0.00,22.6,20.9,00.0,31.4,24.4,14.4,-000.3,0008.07,0012.16,0007.52
2023-03-05 03:07:00,,0816.0,4.97,0.00,22.6,20.9,00.0,31.4,24.3,14.4,-000.5,0008.14,0012.30,0007.56
2023-03-05 03:08:00,,0816.0,5.01,0.00,22.6,20.9,00.0,31.4,24.3,14.4,-000.7,0008.16,0012.48,0007.59
2023-03-05 03:09:00,,0816.0,4.98,0.00,22.6,20.9,00.0,31.4,24.3,14.4,-000.9,0008.23,0012.29,0007.63
2023-03-05 03:10:00,,0816.0,5.00,0.00,22.5,20.9,00.0,31.3,24.3,14.4,-000.7,0008.26,0012.28,0007.67
2023-03-05 03:11:00,,0816.0,4.99,0.00,22.5,20.9,00.0,31.3,24.3,14.4,-000.4,0008.29,0012.41,0007.68
2023-03-05 03:12:00,,0816.0,5.00,0.00,22.5,20.8,00.0,31.3,24.3,14.5,-000.5,0008.31,0012.46,0007.69
2023-03-05 03:13:00,,0816.0,5.02,0.00,22.5,20.8,00.0,31.3,24.3,14.5,-000.3,0008.35,0012.67,0007.70
2023-03-05 03:14:00,,0816.0,4.98,0.00,22.5,20.8,00.0,31.3,24.3,14.6,-000.2,0008.40,0013.09,0007.71
2023-03-05 03:15:00,,0815.9,4.99,0.00,22.5,20.8,00.0,31.3,24.3,14.6,-000.1,0008.40,0013.92,0007.71
2023-03-05 03:16:00,,0815.9,5.01,0.00,22.5,21.3,00.0,31.3,24.4,14.5,-000.1,0008.39,0013.88,0007.70
2023-03-05 03:17:00,,0816.0,5.00,0.00,22.6,22.2,00.0,31.3,24.6,14.4,0000.1,0008.40,0013.92,0007.69
2023-03-05 03:18:00,,0816.0,5.03,0.00,22.7,23.0,00.0,31.3,24.7,14.3,0000.0,0008.37,0013.97,0007.66
2023-03-05 03:19:00,,0816.0,5.00,0.00,22.8,22.8,00.0,31.3,24.7,14.2,0000.3,0008.36,0013.73,0007.67
2023-03-05 03:20:00,,0816.0,5.00,0.00,22.8,22.4,00.0,31.4,24.7,14.2,0000.5,0008.34,0013.56,0007.66
2023-03-05 03:21:00,,0816.0,5.01,0.00,22.8,22.1,00.0,31.4,24.6,14.2,0000.3,0008.34,0013.55,0007.66
2023-03-05 03:22:00,,0815.9,5.01,0.00,22.8,21.8,00.0,31.4,24.6,14.2,0000.1,0008.37,0013.45,0007.69
2023-03-05 03:23:00,,0815.9,5.00,0.00,22.8,21.6,00.0,31.4,24.6,14.1,0000.3,0008.38,0013.39,0007.74
2023-03-05 03:24:00,,0816.0,5.00,0.00,22.7,21.5,00.0,31.4,24.5,14.1,0000.6,0008.39,0013.21,0007.78
2023-03-05 03:25:00,,0815.9,5.01,0.00,22.7,21.4,00.0,31.4,24.5,14.1,0000.4,0008.41,0012.91,0007.83
2023-03-05 03:26:00,,0815.8,5.00,0.00,22.7,21.3,00.0,31.4,24.5,14.1,0000.4,0008.48,0012.25,0007.89
2023-03-05 03:27:00,,0815.8,5.00,0.00,22.7,21.2,00.0,31.4,24.5,14.1,0000.4,0008.54,0012.32,0007.94
2023-03-05 03:28:00,,0815.8,4.99,0.00,22.7,21.2,00.0,31.4,24.5,14.1,0000.6,0008.59,0012.42,0007.96
2023-03-05 03:29:00,,0815.8,5.01,0.00,22.7,21.1,00.0,31.4,24.4,14.1,0000.9,0008.60,0012.40,0007.98
2023-03-05 03:30:00,,0815.8,4.99,0.00,22.7,21.1,00.0,31.4,24.4,14.1,0000.8,0008.60,0012.45,0007.97
2023-03-05 03:31:00,,0815.7,5.01,0.00,22.7,21.0,00.0,31.4,24.4,14.1,0000.8,0008.61,0012.50,0007.96
2023-03-05 03:32:00,,0815.7,5.00,0.00,22.6,21.0,00.0,31.4,24.4,14.2,0000.8,0008.63,0012.57,0007.96
2023-03-05 03:33:00,,0815.7,4.99,0.00,22.6,20.9,00.0,31.4,24.4,14.2,0000.9,0008.60,0012.56,0007.94
2023-03-05 03:34:00,,0815.8,5.01,0.00,22.6,20.9,00.0,31.4,24.3,14.1,0000.9,0008.61,0012.67,0007.92
2023-03-05 03:35:00,,0815.8,5.00,0.00,22.6,20.9,00.0,31.4,24.4,14.1,0000.5,0008.60,0013.75,0007.88
2023-03-05 03:36:00,,0815.8,5.00,0.00,22.6,20.8,00.0,31.4,24.3,14.1,0000.6,0008.58,0013.91,0007.85
2023-03-05 03:37:00,,0815.7,5.00,0.00,22.6,20.8,00.0,31.4,24.3,14.2,0000.9,0008.56,0014.12,0007.82
2023-03-05 03:38:00,,0815.6,4.99,0.00,22.6,20.8,00.0,31.3,24.3,14.2,0001.0,0008.51,0014.15,0007.78
2023-03-05 03:39:00,,0815.7,5.00,0.00,22.5,20.8,00.0,31.3,24.3,14.2,0000.9,0008.45,0014.05,0007.76
2023-03-05 03:40:00,,0815.8,5.00,0.00,22.5,20.8,00.0,31.3,24.3,14.2,0000.6,0008.42,0013.94,0007.74
2023-03-05 03:41:00,,0815.8,5.00,0.00,22.5,20.8,00.0,31.3,24.3,14.2,0000.7,0008.42,0013.92,0007.74
2023-03-05 03:42:00,,0815.7,5.00,0.00,22.5,20.8,00.0,31.3,24.3,14.2,0000.5,0008.42,0013.90,0007.74
2023-03-05 03:43:00,,0815.8,4.98,0.00,22.5,20.8,00.0,31.3,24.3,14.2,0000.5,0008.37,0013.78,0007.72
2023-03-05 03:44:00,,0815.8,5.01,0.00,22.5,20.8,00.0,31.3,24.2,14.1,0000.5,0008.34,0013.85,0007.69
2023-03-05 03:45:00,,0815.8,4.99,0.00,22.5,20.8,00.0,31.3,24.2,14.0,0000.3,0008.30,0013.80,0007.65
2023-03-05 03:46:00,,0815.7,5.02,0.00,22.4,20.8,00.0,31.3,24.2,14.0,0000.4,0008.27,0013.18,0007.63
2023-03-05 03:47:00,,0815.7,5.00,0.00,22.5,21.2,00.0,31.2,24.3,14.0,0000.5,0008.22,0012.90,0007.60
2023-03-05 03:48:00,,0815.8,4.98,0.00,22.6,22.2,00.0,31.2,24.5,13.9,0000.2,0008.19,0012.49,0007.56
2023-03-05 03:49:00,,0815.7,4.99,0.00,22.7,23.2,00.0,31.2,24.8,13.8,-000.0,0008.16,0012.55,0007.52
2023-03-05 03:50:00,,0815.7,4.98,0.00,22.8,23.0,00.0,31.3,24.8,13.7,-000.4,0008.14,0013.10,0007.50
2023-03-05 03:51:00,,0815.7,5.00,0.00,22.8,22.5,00.0,31.3,24.7,13.7,-000.3,0008.13,0013.13,0007.48
2023-03-05 03:52:00,,0815.8,4.99,0.00,22.8,22.2,00.0,31.3,24.7,13.7,-000.7,0008.15,0013.24,0007.45
2023-03-05 03:53:00,,0815.7,5.00,0.00,22.8,21.9,00.0,31.4,24.6,13.7,-000.8,0008.15,0013.31,0007.43
2023-03-05 03:54:00,,0815.7,5.01,0.00,22.8,21.8,00.0,31.4,24.6,13.7,-000.8,0008.14,0013.30,0007.42
2023-03-05 03:55:00,,0815.7,5.00,0.00,22.7,21.6,00.0,31.4,24.5,13.7,-000.5,0008.16,0013.27,0007.44
2023-03-05 03:56:00,,0815.7,5.00,0.00,22.7,21.4,00.0,31.4,24.5,13.8,-000.4,0008.19,0013.32,0007.47
2023-03-05 03:57:00,,0815.7,5.01,0.00,22.7,21.3,00.0,31.4,24.5,13.7,-000.4,0008.26,0013.18,0007.50
2023-03-05 03:58:00,,0815.7,5.01,0.00,22.7,21.2,00.0,31.4,24.5,13.7,-000.7,0008.29,0013.07,0007.53
2023-03-05 03:59:00,,0815.7,5.00,0.00,22.7,21.2,00.0,31.4,24.5,13.7,-000.7,0008.28,0013.05,0007.56
